Home   Weather   Lens   Past weeks

Flag for France Past Weather in Lens, Nord-Pas-de-Calais, France — Yesterday and Last 2 Weeks

Now
45 °F

Passing clouds.


Feels Like: 41 °F
Forecast: 31 / 42 °F
Wind: 7 mph from North

Location: Lille Airport

Current Time: Dec 2, 2016 at 9:08:24 pm

Latest Report: Dec 2, 2016 at 8:30 pm


Visibility: 5 mi

Pressure: 30.24 "Hg

Humidity: 100%

Dew Point: 45 °F

Location of LensLocation

Past Weather in Lens — Graph

°F

Lens Temperature Yesterday

Maximum temperature yesterday: 46 °F (at 1:00 pm)
Minimum temperature yesterday: 30 °F (at 1:00 am)
Average temperature yesterday: 38 °F

High & Low Weather Summary for the Past Weeks

 TemperatureHumidityPressure
High59 °F (Nov 21, 1:30 pm)100% (Nov 20, 10:00 pm)30.57 "Hg (Nov 20, 10:00 pm)
Low23 °F (Nov 30, 6:30 am)53% (Nov 30, 2:00 pm)29.03 "Hg (Nov 20, 8:00 am)
Average43 °F85%29.99 "Hg
* Reported Nov 17 8:00 pm — Dec 2 8:00 pm, Lens, Weather by CustomWeather, © 2016

Note: Actual official high and low records may vary slightly from our data, if they occured in-between our weather recording intervals... More about our weather records

Advertising

Lens Weather History for the Previous 24 Hours

Scroll right to see more
 ConditionsComfort  
Time TempWeatherWind HumidityBarometerVisibility
8:00 pm
Fri, Dec 2
45 °FPassing clouds.6 mph93%30.24 "HgN/A
7:30 pm45 °FMostly cloudy.8 mph93%30.24 "HgN/A
7:00 pm46 °FPassing clouds.7 mph87%30.24 "HgN/A
6:30 pm46 °FPassing clouds.7 mph87%30.24 "HgN/A
6:00 pm45 °FPassing clouds.7 mph93%30.24 "HgN/A
5:30 pm46 °FPassing clouds.5 mph87%30.24 "HgN/A
5:00 pm46 °FMostly cloudy.6 mph87%30.24 "HgN/A
4:30 pm46 °FMore clouds than sun.6 mph87%30.24 "HgN/A
4:00 pm48 °FBroken clouds.6 mph82%30.24 "HgN/A
3:30 pm48 °FMostly cloudy.5 mph87%30.24 "HgN/A
3:00 pm48 °FOvercast.5 mph82%30.24 "HgN/A
2:30 pm48 °FMostly cloudy.7 mph87%30.24 "HgN/A
2:00 pm48 °FMore clouds than sun.3 mph87%30.24 "HgN/A
1:30 pm46 °FMostly cloudy.5 mph93%30.27 "Hg4 mi
1:00 pm46 °FDrizzle. Fog.3 mph93%30.27 "Hg3 mi
12:30 pm46 °FPartly sunny.3 mph93%30.27 "Hg4 mi
12:00 pm45 °FOvercast.3 mph100%30.27 "Hg4 mi
11:30 am43 °FFog.3 mph100%30.27 "Hg3 mi
11:00 am43 °FFog.5 mph100%30.27 "Hg3 mi
10:30 am43 °FFog.6 mph100%30.27 "Hg3 mi
10:00 am43 °FFog.6 mph93%30.27 "Hg3 mi
9:30 am41 °FFog.6 mph100%30.27 "Hg3 mi
9:00 am41 °FFog.6 mph100%30.27 "Hg3 mi
8:30 am41 °FFog.5 mph100%30.27 "Hg3 mi
8:00 am41 °FFog.5 mph100%30.27 "Hg3 mi
7:30 am41 °FFog.5 mph93%30.27 "Hg3 mi
7:00 am41 °FOvercast.5 mph93%30.27 "Hg4 mi
6:30 am41 °FFog.3 mph93%30.27 "Hg3 mi
6:00 am41 °FFog.3 mph93%30.27 "Hg3 mi
5:30 am41 °FFog.2 mph93%30.27 "Hg3 mi
5:00 am41 °FFog.3 mph93%30.27 "Hg3 mi
4:30 am41 °FFog.2 mph93%30.27 "Hg3 mi
4:00 am39 °FOvercast.6 mph100%30.27 "Hg4 mi
3:30 am39 °FFog.6 mph100%30.27 "Hg3 mi
3:00 am39 °FFog.6 mph100%30.30 "Hg3 mi
2:30 am39 °FFog.6 mph100%30.30 "Hg3 mi
2:00 am39 °FFog.6 mph100%30.30 "Hg3 mi
1:30 am39 °FFog.7 mph100%30.30 "Hg3 mi
1:00 am39 °FFog.6 mph100%30.30 "Hg3 mi
12:30 am39 °FFog.6 mph100%30.30 "Hg3 mi
12:00 am39 °FFog.5 mph100%30.30 "Hg3 mi
11:30 pm
Thu, Dec 1
39 °FFog.5 mph100%30.30 "Hg3 mi
11:00 pm39 °FFog.7 mph100%30.30 "Hg3 mi
10:30 pm39 °FFog.5 mph100%30.30 "Hg3 mi
10:00 pm39 °FFog.6 mph100%30.30 "Hg3 mi
9:30 pm39 °FFog.7 mph100%30.30 "Hg3 mi
9:00 pm41 °FFog.5 mph93%30.33 "Hg3 mi
Weather by CustomWeather, © 2016

See weather overviewHow to use our weather pages